Total_Precipitation_Accumulation
1.18 1.11 0.99 0.89 0.88 0.90 0.94 1.01 1.12 1.02 0.77 0.58 0.56 0.58 0.63 0.68 0.78 0.78 0.74 0.90 0.96 0.97 1.02 1.06 1.07 1.04 1.02 1.03 1.09 1.16 1.25 1.32 1.38 1.43 1.43 1.38 1.41 1.51
1.12 1.12 1.07 0.98 0.94 0.95 1.00 1.06 1.15 1.20 1.05 0.73 0.63 0.66 0.75 0.83 0.94 0.88 0.83 0.96 0.94 0.94 0.96 0.96 0.92 0.89 0.88 0.89 0.92 0.99 1.05 1.10 1.17 1.30 1.42 1.46 1.52 1.61
1.06 1.08 1.10 1.07 1.08 1.06 1.10 1.17 1.23 1.31 1.30 1.01 0.82 0.78 0.82 0.83 0.85 0.81 0.78 0.80 0.79 0.88 0.85 0.81 0.78 0.75 0.75 0.77 0.79 0.83 0.86 0.93 1.01 1.11 1.23 1.33 1.35 1.37
1.00 1.05 1.08 1.09 1.14 1.15 1.18 1.22 1.25 1.25 1.26 1.13 0.92 0.82 0.77 0.73 0.72 0.70 0.67 0.66 0.63 0.73 0.73 0.70 0.69 0.67 0.68 0.69 0.70 0.71 0.76 0.82 0.87 0.93 0.98 1.04 1.08 1.09
0.87 0.90 0.92 0.97 1.03 1.04 1.08 1.13 1.14 1.15 1.14 1.07 0.89 0.74 0.67 0.66 0.69 0.68 0.62 0.59 0.54 0.58 0.60 0.57 0.56 0.55 0.57 0.59 0.62 0.64 0.62 0.62 0.64 0.67 0.74 0.84 0.93 0.95
0.79 0.81 0.83 0.88 0.93 0.99 1.04 1.05 1.06 1.09 1.09 1.08 0.99 0.83 0.70 0.64 0.66 0.66 0.62 0.55 0.49 0.46 0.54 0.54 0.52 0.50 0.47 0.46 0.44 0.45 0.48 0.51 0.56 0.60 0.64 0.70 0.78 0.86
0.83 0.87 0.91 1.01 1.03 0.99 0.96 0.94 0.95 0.99 1.01 1.02 0.93 0.81 0.70 0.64 0.63 0.58 0.57 0.55 0.54 0.48 0.49 0.47 0.45 0.44 0.43 0.44 0.43 0.41 0.42 0.48 0.54 0.59 0.65 0.71 0.75 0.81
0.86 0.86 0.89 0.99 0.97 0.96 0.90 0.86 0.87 0.94 0.96 0.90 0.80 0.67 0.54 0.47 0.48 0.54 0.59 0.65 0.64 0.48 0.47 0.48 0.44 0.46 0.41 0.39 0.44 0.42 0.41 0.44 0.50 0.56 0.60 0.65 0.67 0.70
0.84 0.82 0.78 0.75 0.77 0.69 0.75 0.80 0.80 0.80 0.76 0.70 0.65 0.54 0.46 0.43 0.52 0.63 0.65 0.64 0.54 0.41 0.48 0.57 0.51 0.47 0.40 0.39 0.46 0.42 0.41 0.44 0.48 0.51 0.54 0.57 0.62 0.64
0.69 0.67 0.63 0.58 0.56 0.57 0.60 0.66 0.58 0.55 0.54 0.50 0.47 0.44 0.44 0.47 0.56 0.66 0.70 0.73 0.64 0.57 0.57 0.63 0.53 0.47 0.40 0.39 0.45 0.43 0.43 0.47 0.50 0.53 0.56 0.58 0.60 0.65
0.51 0.50 0.50 0.47 0.54 0.61 0.56 0.52 0.48 0.46 0.50 0.52 0.54 0.53 0.57 0.61 0.63 0.69 0.77 0.85 0.77 0.60 0.52 0.51 0.46 0.43 0.42 0.43 0.45 0.50 0.47 0.48 0.50 0.53 0.54 0.58 0.59 0.62
0.33 0.34 0.40 0.41 0.50 0.57 0.50 0.47 0.44 0.39 0.40 0.44 0.46 0.45 0.43 0.47 0.57 0.56 0.65 0.86 0.78 0.58 0.37 0.41 0.45 0.52 0.64 0.47 0.41 0.44 0.49 0.53 0.52 0.51 0.51 0.53 0.57 0.61
0.30 0.28 0.30 0.39 0.44 0.47 0.47 0.41 0.41 0.44 0.42 0.41 0.43 0.44 0.43 0.43 0.45 0.46 0.51 0.75 0.90 0.67 0.33 0.52 0.70 0.60 0.74 0.55 0.40 0.39 0.41 0.47 0.52 0.52 0.53 0.55 0.60 0.69
0.28 0.27 0.29 0.40 0.45 0.45 0.42 0.42 0.47 0.49 0.43 0.44 0.46 0.44 0.42 0.40 0.38 0.38 0.42 0.48 0.57 0.59 0.43 0.64 0.98 0.79 0.87 0.72 0.45 0.39 0.42 0.44 0.48 0.51 0.52 0.62 0.68 0.72
0.30 0.33 0.35 0.39 0.41 0.40 0.41 0.44 0.44 0.41 0.40 0.42 0.40 0.37 0.35 0.37 0.42 0.46 0.49 0.50 0.50 0.48 0.46 0.50 0.71 0.79 0.97 0.95 0.64 0.41 0.42 0.46 0.47 0.53 0.59 0.63 0.68 0.75
0.35 0.36 0.38 0.38 0.38 0.38 0.39 0.40 0.38 0.37 0.40 0.40 0.37 0.36 0.40 0.46 0.49 0.51 0.55 0.55 0.58 0.51 0.45 0.42 0.49 0.75 0.95 0.76 0.75 0.62 0.50 0.55 0.52 0.58 0.65 0.63 0.61 0.68
0.42 0.41 0.38 0.36 0.34 0.33 0.33 0.34 0.35 0.37 0.40 0.38 0.41 0.44 0.45 0.46 0.47 0.47 0.54 0.59 0.59 0.49 0.43 0.41 0.43 0.52 0.66 0.72 0.74 0.58 0.53 0.58 0.63 0.72 0.79 0.77 0.64 0.65
0.53 0.45 0.36 0.31 0.30 0.31 0.33 0.34 0.35 0.36 0.37 0.40 0.44 0.47 0.50 0.51 0.49 0.47 0.51 0.58 0.58 0.47 0.43 0.42 0.47 0.58 0.58 0.54 0.54 0.57 0.60 0.64 0.64 0.69 0.80 0.96 0.78 0.65
0.48 0.38 0.32 0.30 0.30 0.32 0.35 0.38 0.37 0.35 0.39 0.45 0.48 0.51 0.56 0.56 0.55 0.54 0.53 0.55 0.54 0.48 0.45 0.45 0.57 0.86 0.91 0.56 0.36 0.43 0.66 0.74 0.71 0.76 0.84 1.01 1.05 0.80
0.34 0.28 0.28 0.29 0.33 0.36 0.39 0.41 0.42 0.42 0.43 0.44 0.47 0.52 0.59 0.63 0.60 0.56 0.55 0.58 0.59 0.54 0.48 0.45 0.51 0.81 1.17 0.96 0.66 0.40 0.44 0.69 0.97 1.07 0.90 0.81 0.81 0.75
0.24 0.23 0.27 0.32 0.36 0.40 0.42 0.45 0.49 0.50 0.48 0.53 0.54 0.54 0.60 0.69 0.64 0.56 0.56 0.55 0.59 0.60 0.55 0.44 0.40 0.52 0.83 1.10 0.91 0.49 0.42 0.51 0.81 1.19 1.22 1.12 0.90 0.72
0.26 0.28 0.29 0.34 0.39 0.44 0.46 0.49 0.52 0.51 0.53 0.58 0.59 0.59 0.61 0.69 0.69 0.62 0.61 0.63 0.58 0.55 0.54 0.48 0.47 0.56 0.78 1.04 0.83 0.51 0.44 0.46 0.53 0.62 0.89 1.38 1.80 1.65
0.34 0.35 0.36 0.39 0.44 0.48 0.51 0.52 0.51 0.49 0.51 0.58 0.59 0.59 0.62 0.66 0.61 0.63 0.64 0.67 0.70 0.65 0.62 0.60 0.56 0.58 0.62 0.69 0.73 0.59 0.47 0.44 0.47 0.52 0.60 0.69 0.92 1.15